Waarnemingen

Advertentie
Mijn weer
Topcliffe, Groot Brittannië (3265): temperatuur & dauwpunt: 14.11.2018 11:00:00 - 20.11.2018 11:00:00 (GMT)Topcliffe, Groot Brittannië (3265): windsnelheid & windstoten: 14.11.2018 11:00:00 - 20.11.2018 11:00:00 (GMT)Topcliffe, Groot Brittannië (3265): windrichting: 14.11.2018 11:00:00 - 20.11.2018 11:00:00 (GMT)Topcliffe, Groot Brittannië (3265): luchtdruk: 14.11.2018 11:00:00 - 20.11.2018 11:00:00 (GMT)Topcliffe, Groot Brittannië (3265): zicht: 14.11.2018 11:00:00 - 20.11.2018 11:00:00 (GMT)Topcliffe, Groot Brittannië (3265): neerslag: 14.11.2018 11:00:00 - 20.11.2018 11:00:00 (GMT)
Datum & Tijd tt [°C] td [°C] ff [km/u] ff [kn] fx [km/u] fx [kn] dd ppp [hPa] vv [km] rr [mm]
20.11.2018 11:00:00 6,3 3,9 22 12 - - NO 1017,2 45 0,2
20.11.2018 10:00:00 7,0 4,2 21 11 - - NO 1017,9 40 0,0
20.11.2018 09:00:00 5,6 3,1 26 14 - - NO 1018,4 50 0,0
20.11.2018 08:00:00 5,6 3,3 22 12 - - NO 1018,9 40 0,6
20.11.2018 07:00:00 5,2 3,5 18 10 54 29 NO 1019,2 20 0,4
20.11.2018 06:00:00 5,0 2,7 22 12 - - NO 1019,5 50 0,0
20.11.2018 05:00:00 5,3 3,4 24 13 - - ONO 1020,1 16 0,2
20.11.2018 04:00:00 5,3 3,9 15 8 - - O 1020,6 30 0,8
20.11.2018 03:00:00 5,8 3,7 16 9 - - ONO 1021,2 11 0,2
20.11.2018 02:00:00 6,0 3,6 22 12 - - NO 1021,8 45 0,0
20.11.2018 01:00:00 6,1 3,4 24 13 - - NO 1022,1 50 0,0
20.11.2018 00:00:00 4,8 2,9 18 10 - - NO 1022,7 50 0,0
19.11.2018 23:00:00 5,2 3,5 15 8 - - NO 1023,1 40 0,2
19.11.2018 22:00:00 5,3 3,4 22 12 - - NO 1023,4 45 0,0
19.11.2018 21:00:00 5,6 3,7 22 12 - - ONO 1023,9 45 0,4
19.11.2018 20:00:00 5,4 3,5 21 11 - - NO 1024,3 30 0,0
19.11.2018 19:00:00 5,6 3,7 24 13 - - NO 1024,6 45 0,2
19.11.2018 18:00:00 5,2 3,2 24 13 - - NO 1024,8 50 0,0
19.11.2018 17:00:00 5,2 3,4 18 10 - - ONO 1025,0 40 0,0
19.11.2018 16:00:00 6,2 4,2 16 9 - - NO 1025,4 10 0,0
19.11.2018 15:00:00 6,9 4,7 21 11 - - ONO 1025,8 10 0,2
19.11.2018 14:00:00 7,5 4,5 18 10 - - O 1026,3 10 0,0
19.11.2018 13:00:00 8,2 4,9 22 12 - - NO 1026,8 10 0,0
19.11.2018 12:00:00 8,5 6,2 28 15 46 25 ONO 1027,4 18 0,0
19.11.2018 11:00:00 8,4 6,5 18 10 - - ONO 1027,9 12 0,2
19.11.2018 10:00:00 8,4 5,7 18 10 - - ONO 1028,3 10 0,0
19.11.2018 09:00:00 8,1 4,9 15 8 - - ONO 1028,4 10 0,0
19.11.2018 08:00:00 7,5 4,5 13 7 - - NO 1028,7 35 0,0
19.11.2018 07:00:00 7,7 4,8 13 7 - - ONO 1028,7 40 0,0
19.11.2018 06:00:00 8,0 4,7 16 9 - - ONO 1028,7 35 0,0
19.11.2018 05:00:00 8,2 6,4 16 9 - - ONO 1028,9 19 0,0
19.11.2018 04:00:00 6,7 5,6 15 8 - - N 1029,1 10 0,0
19.11.2018 03:00:00 6,8 5,2 13 7 - - N 1029,7 13 0,0
19.11.2018 02:00:00 6,2 5,1 15 8 - - N 1030,4 11 0,0
19.11.2018 01:00:00 5,3 4,3 13 7 - - N 1031,0 8 0,0
19.11.2018 00:00:00 4,6 3,5 15 8 - - NNW 1031,3 12 0,0
18.11.2018 23:00:00 4,2 3,5 13 7 - - N 1031,7 12 0,0
18.11.2018 22:00:00 4,3 3,7 13 7 - - NNW 1031,9 7 0,0
18.11.2018 21:00:00 4,3 3,4 13 7 - - NNW 1031,7 10 0,0
18.11.2018 20:00:00 5,2 4,0 11 6 - - NW 1032,1 10 0,0
18.11.2018 19:00:00 4,8 3,6 8 4 - - NNO 1032,3 17 0,0
18.11.2018 18:00:00 5,6 4,2 8 4 - - N 1032,3 16 0,0
18.11.2018 17:00:00 4,9 3,4 9 5 - - NO 1032,3 16 0,0
18.11.2018 16:00:00 7,3 4,8 11 6 - - O 1032,3 26 0,0
18.11.2018 15:00:00 9,8 5,7 15 8 - - O 1032,2 35 0,0
18.11.2018 14:00:00 11,6 7,8 2 1 - - ZZO 1032,1 23 0,0
18.11.2018 13:00:00 8,7 7,9 9 5 - - NW 1032,4 11 0,0
18.11.2018 12:00:00 7,0 7,0 11 6 - - NW 1033,0 7 0,0
18.11.2018 11:00:00 4,8 4,8 11 6 - - NW 1033,2 0,9 0,0
18.11.2018 10:00:00 3,7 3,7 13 7 - - NW 1033,6 0,6 0,0
18.11.2018 09:00:00 2,5 2,5 15 8 - - NNW 1033,5 0,3 0,0
18.11.2018 08:00:00 2,3 2,3 15 8 - - NW 1033,3 0,5 0,0
18.11.2018 07:00:00 1,5 1,5 15 8 - - NW 1033,3 0,3 0,2
18.11.2018 06:00:00 1,7 1,7 13 7 - - NW 1032,8 3,0 0,0
18.11.2018 05:00:00 1,6 1,6 15 8 - - NW 1032,6 1,3 0,0
18.11.2018 04:00:00 2,1 2,1 15 8 - - NW 1032,6 1,2 0,0
18.11.2018 03:00:00 2,4 2,3 13 7 - - NW 1032,4 1,7 0,0
18.11.2018 02:00:00 2,8 2,7 11 6 - - NW 1032,6 2,3 0,0
18.11.2018 01:00:00 3,1 3,0 11 6 - - WNW 1032,4 2,5 0,0
18.11.2018 00:00:00 3,3 3,2 9 5 - - WNW 1032,4 3,0 0,0
17.11.2018 23:00:00 4,6 4,5 4 2 - - WNW 1032,4 3,4 0,0
17.11.2018 22:00:00 5,3 5,2 4 2 - - OZO 1032,4 4,3 0,0
17.11.2018 21:00:00 5,2 5,1 5 3 - - O 1032,2 4,0 0,0
17.11.2018 20:00:00 4,7 4,5 8 4 - - OZO 1032,0 3,9 0,0
17.11.2018 19:00:00 5,6 5,3 5 3 - - ONO 1031,5 5 0,0
17.11.2018 18:00:00 5,8 5,5 4 2 - - ONO 1031,0 3,4 0,0
17.11.2018 17:00:00 6,2 5,3 11 6 - - O 1031,0 7 0,0
17.11.2018 16:00:00 8,2 6,4 15 8 - - O 1030,8 8 0,0
17.11.2018 15:00:00 10,2 7,4 16 9 - - O 1030,5 10 0,0
17.11.2018 14:00:00 11,0 8,1 18 10 - - O 1030,6 12 0,0
17.11.2018 13:00:00 11,4 8,2 16 9 - - O 1030,6 10 0,0
17.11.2018 12:00:00 10,4 7,6 16 9 - - O 1030,6 8 0,0
17.11.2018 11:00:00 9,9 7,6 11 6 - - O 1030,9 6 0,0
17.11.2018 10:00:00 9,2 7,4 8 4 - - O 1030,9 4,9 0,0
17.11.2018 09:00:00 8,6 7,7 9 5 - - OZO 1030,5 4,0 0,0
17.11.2018 08:00:00 8,2 7,5 8 4 - - ZO 1030,1 3,1 0,0
17.11.2018 07:00:00 8,0 7,0 8 4 - - O 1029,6 4,5 0,0
17.11.2018 06:00:00 7,6 6,5 4 2 - - ZO 1029,4 3,3 0,0
17.11.2018 05:00:00 7,5 6,1 11 6 - - OZO 1029,2 5 0,0
17.11.2018 04:00:00 7,5 5,5 15 8 - - ZO 1029,1 10 0,0
17.11.2018 03:00:00 7,6 5,6 15 8 - - ZO 1029,2 8 0,0
17.11.2018 02:00:00 7,7 5,8 13 7 - - ZZO 1029,2 8 0,0
17.11.2018 01:00:00 7,8 5,7 15 8 - - ZO 1028,9 10 0,2
17.11.2018 00:00:00 7,7 5,9 15 8 - - ZZO 1028,6 10 0,0
16.11.2018 23:00:00 7,5 5,9 18 10 - - ZO 1028,5 8 0,0
16.11.2018 22:00:00 7,7 6,5 22 12 - - O 1028,3 8 0,0
16.11.2018 21:00:00 9,1 8,8 21 11 - - O 1027,7 2,3 0,0
16.11.2018 20:00:00 10,1 9,8 11 6 - - OZO 1027,4 2,9 0,0
16.11.2018 19:00:00 10,5 10,1 15 8 - - OZO 1027,2 3,0 0,0
16.11.2018 18:00:00 10,7 10,5 13 7 - - OZO 1027,0 2,5 0,0
16.11.2018 17:00:00 10,7 10,5 9 5 - - ZO 1026,6 3,3 0,0
16.11.2018 16:00:00 10,8 10,5 11 6 - - ZO 1026,3 3,9 0,0
16.11.2018 15:00:00 10,8 10,8 15 8 - - ZO 1026,3 3,3 0,0
16.11.2018 14:00:00 10,6 10,6 13 7 - - ZO 1026,3 2,8 0,0
16.11.2018 13:00:00 10,7 10,7 15 8 - - OZO 1026,2 0,6 0,0
16.11.2018 12:00:00 10,7 10,7 11 6 - - ZO 1026,4 1,2 0,0
16.11.2018 11:00:00 10,6 10,6 11 6 - - ZZO 1026,1 0,3 0,0
16.11.2018 10:00:00 10,8 10,8 18 10 - - ZZO 1025,5 0,6 0,0
16.11.2018 09:00:00 10,8 10,8 16 9 - - ZO 1025,0 0,2 0,0
16.11.2018 08:00:00 10,7 10,7 11 6 - - ZZO 1024,9 0,3 0,0
16.11.2018 07:00:00 10,8 10,8 16 9 - - ZO 1023,9 0,4 0,0
16.11.2018 06:00:00 10,8 10,8 11 6 - - ZO 1023,4 0,8 0,0
16.11.2018 05:00:00 10,5 10,4 13 7 - - ZO 1022,9 1,4 0,0
16.11.2018 04:00:00 10,8 10,8 15 8 - - ZO 1022,2 1,9 0,0
16.11.2018 03:00:00 10,3 10,2 5 3 - - OZO 1022,3 1,8 0,0
16.11.2018 02:00:00 10,3 10,2 8 4 - - ZZO 1022,0 2,9 0,0
16.11.2018 01:00:00 9,9 9,8 8 4 - - ZO 1021,6 3,0 0,0
16.11.2018 00:00:00 8,9 8,9 11 6 - - ZZO 1021,2 3,3 0,0
15.11.2018 23:00:00 8,1 7,5 9 5 - - ZO 1021,0 3,4 0,0
15.11.2018 22:00:00 9,2 8,8 13 7 - - ZO 1020,6 4,0 0,0
15.11.2018 21:00:00 8,6 8,4 15 8 - - ZO 1020,0 4,0 0,0
15.11.2018 20:00:00 8,5 8,0 22 12 - - ZO 1018,9 5 0,0
15.11.2018 19:00:00 9,1 8,2 21 11 - - ZO 1018,3 7 0,0
15.11.2018 18:00:00 9,0 8,1 16 9 - - ZO 1018,6 7 0,0
15.11.2018 17:00:00 8,8 7,8 15 8 - - ZO 1018,4 7 0,0
15.11.2018 16:00:00 10,4 8,8 16 9 - - ZO 1018,3 12 0,0
15.11.2018 15:00:00 11,9 9,4 18 10 - - ZZO 1018,3 13 0,0
15.11.2018 14:00:00 12,3 9,6 22 12 - - ZZO 1018,1 15 0,0
15.11.2018 13:00:00 12,1 9,6 24 13 - - ZZO 1018,2 14 0,0
15.11.2018 12:00:00 10,0 9,1 11 6 - - Z 1018,6 8 0,0
15.11.2018 11:00:00 8,7 8,0 16 9 - - ZZO 1018,8 6 0,0
15.11.2018 10:00:00 6,5 6,5 13 7 - - ZZO 1019,4 3,0 0,0
15.11.2018 09:00:00 5,6 5,6 13 7 - - ZZO 1019,2 1,1 0,0
15.11.2018 08:00:00 4,1 4,1 8 4 - - ZO 1019,0 1,4 0,0
15.11.2018 07:00:00 5,1 5,1 9 5 - - ZO 1019,0 1,9 0,0
15.11.2018 06:00:00 3,2 3,1 16 9 - - OZO 1018,7 1,5 0,0
15.11.2018 05:00:00 3,5 3,4 16 9 - - ZO 1018,6 2,3 0,0
15.11.2018 04:00:00 4,6 4,5 21 11 - - ZO 1018,5 3,9 0,0
15.11.2018 03:00:00 4,5 4,5 18 10 - - ZO 1018,5 4,3 0,0
15.11.2018 02:00:00 4,1 3,8 15 8 - - ZO 1018,3 4,1 0,0
15.11.2018 01:00:00 5,2 4,9 16 9 - - ZO 1018,3 7 0,0
15.11.2018 00:00:00 6,7 6,3 24 13 - - ZZO 1018,1 9 0,0
14.11.2018 23:00:00 7,3 6,5 18 10 - - ZO 1018,3 12 0,0
14.11.2018 22:00:00 7,4 6,4 13 7 - - ZO 1017,8 21 0,0
14.11.2018 21:00:00 7,7 6,7 15 8 - - ZO 1017,7 18 0,0
14.11.2018 20:00:00 8,9 7,1 16 9 - - ZO 1017,4 40 0,0
14.11.2018 19:00:00 9,8 7,3 16 9 - - ZZO 1017,4 30 0,0
14.11.2018 18:00:00 11,1 8,1 16 9 - - Z 1017,1 40 0,0
14.11.2018 17:00:00 12,0 8,1 24 13 - - Z 1016,8 40 0,0
14.11.2018 16:00:00 12,5 8,5 21 11 - - Z 1016,9 40 0,0
14.11.2018 15:00:00 13,6 9,0 29 16 - - ZZW 1016,6 35 0,0
14.11.2018 14:00:00 13,8 10,0 21 11 - - Z 1016,5 35 0,0
14.11.2018 13:00:00 13,5 9,9 22 12 - - Z 1016,5 45 0,0
14.11.2018 12:00:00 13,2 9,8 31 17 - - Z 1016,1 45 0,0
14.11.2018 11:00:00 12,1 9,7 26 14 - - ZZO 1016,1 28 0,0

tt = temperatuur
td = dauwpunt
ff = windsnelheid
fx = windstoten
dd = windrichting
ppp = luchtdruk
vv = zicht
rr = neerslag

Weerstations in de omgeving